$Date,$Time,DM0201B,DM0203B,DM0205B,DM0207B,DM0209B
11/03/98,00:00:01,0,0,0,0,0
11/03/98,00:05:01,48,11,-22,469,945
11/03/98,00:10:01,43,6,-22,471,945
11/03/98,00:15:01,34,9,-21,475,945
11/03/98,00:20:01,45,18,-21,477,945
11/03/98,00:25:01,39,6,-21,477,945
11/03/98,00:30:01,26,5,-21,480,945
11/03/98,00:35:01,30,13,-21,480,945
11/03/98,00:40:01,22,5,-21,480,945
11/03/98,00:45:01,50,7,-21,480,945
11/03/98,00:50:01,30,7,-21,482,945
11/03/98,00:55:01,29,3,-21,482,945
11/03/98,01:00:01,32,10,-21,482,945
11/03/98,01:05:01,39,7,-21,484,945
11/03/98,01:10:01,48,9,-21,486,945
11/03/98,01:15:01,45,22,-21,486,945
11/03/98,01:20:01,42,22,-21,486,945
11/03/98,01:25:01,52,30,-21,488,945
11/03/98,01:30:01,42,15,-20,488,945
11/03/98,01:35:01,45,13,-20,488,945
11/03/98,01:40:01,58,24,-20,488,945
11/03/98,01:45:01,49,12,-20,488,945
11/03/98,01:50:01,59,4,-20,486,945
11/03/98,01:55:01,51,6,-20,486,945
11/03/98,02:00:01,34,17,-19,484,945
11/03/98,02:05:01,37,16,-19,484,945
11/03/98,02:10:01,49,8,-19,482,945
11/03/98,02:15:01,48,8,-18,480,945
11/03/98,02:20:01,44,12,-16,478,945
11/03/98,02:25:01,19,15,-15,476,945
11/03/98,02:30:01,29,13,-14,474,945
11/03/98,02:35:01,42,14,-14,472,945
11/03/98,02:40:01,39,7,-13,470,945
11/03/98,02:45:01,43,6,-14,468,945
11/03/98,02:50:01,17,25,-12,464,945
11/03/98,02:55:01,17,354,-11,462,945
11/03/98,03:00:01,2,334,-11,460,945
11/03/98,03:05:01,11,355,-11,456,945
11/03/98,03:10:01,32,344,-11,454,945
11/03/98,03:15:01,21,358,-10,450,945
11/03/98,03:20:01,26,8,-10,448,945
11/03/98,03:25:01,18,29,-10,444,945
11/03/98,03:30:01,16,30,-9,440,945
11/03/98,03:35:01,12,62,-8,438,945
11/03/98,03:40:01,24,342,-7,432,945
11/03/98,03:45:01,0,80,-6,432,945
11/03/98,03:50:01,1,80,-6,428,945
11/03/98,03:55:01,16,52,-7,424,945
11/03/98,04:00:01,4,84,-6,420,945
11/03/98,04:05:01,21,55,-6,418,945
11/03/98,04:10:01,17,28,-6,412,945
11/03/98,04:15:01,3,19,-7,408,945
11/03/98,04:20:01,21,39,-6,404,945
11/03/98,04:25:01,24,36,-6,400,945
11/03/98,04:30:01,32,24,-7,396,945
11/03/98,04:35:01,30,25,-7,392,945
11/03/98,04:40:01,44,17,-7,388,945
11/03/98,04:45:01,8,14,-8,384,945
11/03/98,04:50:01,29,353,-8,380,945
11/03/98,04:55:01,14,1,-8,376,945
11/03/98,05:00:01,36,6,-10,372,945
11/03/98,05:05:01,20,2,-9,366,945
11/03/98,05:10:01,23,1,-9,362,945
11/03/98,05:15:01,8,7,-9,357,945
11/03/98,05:20:01,17,27,-8,353,945
11/03/98,05:25:01,32,3,-8,347,945
11/03/98,05:30:01,21,3,-9,343,945
11/03/98,05:35:01,33,13,-9,337,945
11/03/98,05:40:01,25,20,-9,333,945
11/03/98,05:45:01,21,6,-7,324,945
11/03/98,05:50:01,33,12,-7,292,945
11/03/98,05:55:01,28,9,-9,249,945
11/03/98,06:00:01,14,21,-7,219,945
11/03/98,06:05:01,26,31,-8,221,945
11/03/98,06:10:01,25,3,-7,240,945
11/03/98,06:15:01,37,13,-8,263,945
11/03/98,06:20:01,27,20,-8,285,945
11/03/98,06:25:01,28,24,-7,289,945
11/03/98,06:30:01,28,359,-7,283,945
11/03/98,06:35:01,24,3,-7,279,945
11/03/98,06:40:01,10,13,-8,273,945
11/03/98,06:45:01,19,342,-8,267,945
11/03/98,06:50:01,2,358,-9,261,945
11/03/98,06:55:01,2,314,-9,257,945
11/03/98,07:00:01,0,337,-8,253,945
11/03/98,07:05:01,26,82,-7,247,945
11/03/98,07:10:01,7,77,-6,241,945
11/03/98,07:15:01,55,16,-10,235,945
11/03/98,07:20:01,36,13,-10,231,945
11/03/98,07:25:01,51,11,-12,225,945
11/03/98,07:30:01,11,39,-11,219,945
11/03/98,07:35:01,33,15,-12,215,945
11/03/98,07:40:01,16,31,-11,209,945
11/03/98,07:45:01,38,52,-11,205,945
11/03/98,07:50:01,31,17,-12,199,945
11/03/98,07:55:01,10,66,-12,195,945
11/03/98,08:00:01,3,50,-13,190,945
11/03/98,08:05:01,45,53,-13,184,945
11/03/98,08:10:01,14,67,-12,180,945
11/03/98,08:15:01,10,48,-11,174,945
11/03/98,08:20:01,16,343,-12,170,945
11/03/98,08:25:01,12,322,-12,166,945
11/03/98,08:30:01,15,318,-12,160,945
11/03/98,08:35:01,5,318,-11,156,945
11/03/98,08:40:01,18,307,-11,152,945
11/03/98,08:45:01,7,307,-11,148,945
11/03/98,08:50:01,7,307,-11,144,945
11/03/98,08:55:01,2,277,-11,140,945
11/03/98,09:00:01,12,232,-10,136,945
11/03/98,09:05:01,7,260,-12,132,945
11/03/98,09:10:01,4,211,-13,126,945
11/03/98,09:15:01,38,245,-13,124,945
11/03/98,09:20:01,36,226,-13,111,945
11/03/98,09:25:01,24,227,-13,79,945
11/03/98,09:30:01,37,242,-14,77,945
11/03/98,09:35:01,58,231,-15,34,945
11/03/98,09:40:01,61,231,-16,32,945
11/03/98,09:45:01,58,236,-16,80,947
11/03/98,09:50:01,47,257,-17,99,947
11/03/98,09:55:01,55,266,-17,97,947
11/03/98,10:00:01,65,243,-17,93,947
11/03/98,10:05:01,86,243,-18,91,947
11/03/98,10:10:01,49,246,-19,87,947
11/03/98,10:15:01,46,250,-20,85,947
11/03/98,10:20:01,60,236,-20,83,947
11/03/98,10:25:01,52,238,-21,81,947
11/03/98,10:30:01,54,244,-21,79,947
11/03/98,10:35:01,35,233,-21,79,947
11/03/98,10:40:01,24,227,-21,79,947
11/03/98,10:45:01,9,268,-21,77,947
11/03/98,10:50:01,29,313,-22,75,947
11/03/98,10:55:01,48,344,-22,73,947
11/03/98,11:00:01,53,347,-22,71,947
11/03/98,11:05:01,63,344,-22,67,947
11/03/98,11:10:01,60,344,-22,63,947
11/03/98,11:15:01,53,329,-22,61,947
11/03/98,11:20:01,56,318,-22,59,947
11/03/98,11:25:01,52,328,-22,56,947
11/03/98,11:30:01,51,311,-23,54,947
11/03/98,11:35:01,39,309,-23,49,947
11/03/98,11:40:01,38,335,-23,51,947
11/03/98,11:45:01,31,291,-23,51,947
11/03/98,11:50:01,35,268,-23,49,947
11/03/98,11:55:01,23,268,-23,49,947
11/03/98,12:00:01,23,1,-23,45,947
11/03/98,12:05:01,12,359,-23,45,947
11/03/98,12:10:01,1,245,-23,45,947
11/03/98,12:15:01,31,338,-23,43,947
11/03/98,12:20:01,24,349,-23,43,947
11/03/98,12:25:01,18,349,-23,41,947
11/03/98,12:30:01,27,339,-23,41,947
11/03/98,12:35:01,0,339,-23,41,947
11/03/98,12:40:01,11,358,-23,41,947
11/03/98,12:45:01,11,332,-23,41,947
11/03/98,12:50:01,10,358,-23,39,947
11/03/98,12:55:01,29,73,-23,39,947
11/03/98,13:00:01,6,27,-23,39,949
11/03/98,13:05:01,6,27,-23,39,949
11/03/98,13:10:01,3,41,-23,37,949
11/03/98,13:15:01,21,37,-23,34,949
11/03/98,13:20:01,30,54,-23,40,949
11/03/98,13:25:01,31,68,-23,40,949
11/03/98,13:30:01,39,86,-23,42,949
11/03/98,13:35:01,53,88,-22,42,949
11/03/98,13:40:01,74,91,-22,42,949
11/03/98,13:45:01,124,116,-22,44,949
11/03/98,13:50:01,104,120,-22,44,949
11/03/98,13:55:01,115,133,-22,46,949
11/03/98,14:00:01,105,122,-22,48,949
11/03/98,14:05:01,79,112,-22,50,949
11/03/98,14:10:01,113,127,-22,50,949
11/03/98,14:15:01,119,121,-22,54,949
11/03/98,14:20:01,143,134,-22,54,949
11/03/98,14:25:01,166,133,-22,56,949
11/03/98,14:30:01,172,134,-22,60,949
11/03/98,14:35:01,164,134,-22,62,949
11/03/98,14:40:01,161,133,-22,64,949
11/03/98,14:45:01,122,150,-22,68,949
11/03/98,14:50:01,144,150,-22,70,949
11/03/98,14:55:01,167,136,-22,72,949
11/03/98,15:00:01,143,136,-22,76,949
11/03/98,15:05:01,132,136,-22,80,949
11/03/98,15:10:01,116,135,-22,82,949
11/03/98,15:15:01,99,135,-21,84,949
11/03/98,15:20:01,103,123,-21,88,949
11/03/98,15:25:01,105,120,-21,90,949
11/03/98,15:30:01,71,118,-21,92,949
11/03/98,15:35:01,21,113,-21,86,949
11/03/98,15:40:01,16,101,-21,78,949
11/03/98,15:45:01,19,89,-22,74,949
11/03/98,15:50:01,2,71,-22,96,949
11/03/98,15:55:01,19,12,-22,107,949
11/03/98,16:00:01,10,16,-22,108,949
11/03/98,16:05:01,16,2,-22,113,949
11/03/98,16:10:01,13,13,-22,117,949
11/03/98,16:15:01,46,353,-22,102,949
11/03/98,16:20:01,46,343,-23,122,949
11/03/98,16:25:01,57,322,-23,126,951
11/03/98,16:30:01,56,285,-23,119,951
11/03/98,16:35:01,50,296,-23,106,951
11/03/98,16:40:01,38,284,-22,104,951
11/03/98,16:45:01,33,249,-22,129,951
11/03/98,16:50:01,32,233,-22,121,951
11/03/98,16:55:01,37,246,-22,114,951
11/03/98,17:00:01,59,234,-22,145,951
11/03/98,17:05:01,59,223,-22,168,951
11/03/98,17:10:01,19,196,-22,170,951
11/03/98,17:15:01,38,201,-22,153,951
11/03/98,17:20:01,56,203,-22,153,951
11/03/98,17:25:01,19,206,-22,146,951
11/03/98,17:30:01,48,219,-22,172,951
11/03/98,17:35:01,49,219,-22,175,951
11/03/98,17:40:01,49,224,-22,191,951
11/03/98,17:45:01,71,211,-22,168,951
11/03/98,17:50:01,52,211,-22,207,951
11/03/98,17:55:01,43,211,-21,205,951
11/03/98,18:00:01,27,213,-21,208,951
11/03/98,18:05:01,29,203,-21,212,951
11/03/98,18:10:01,29,205,-21,214,951
11/03/98,18:15:01,31,178,-21,214,951
11/03/98,18:20:01,15,188,-21,200,951
11/03/98,18:25:01,21,196,-21,208,951
11/03/98,18:30:01,20,196,-21,213,951
11/03/98,18:35:01,10,207,-21,217,951
11/03/98,18:40:01,6,245,-21,219,951
11/03/98,18:45:01,30,255,-21,222,951
11/03/98,18:50:01,36,252,-21,226,951
11/03/98,18:55:01,42,245,-21,230,951
11/03/98,19:00:01,42,232,-20,234,951
11/03/98,19:05:01,31,248,-20,236,951
11/03/98,19:10:01,35,259,-20,240,951
11/03/98,19:15:01,30,253,-20,244,951
11/03/98,19:20:01,20,226,-20,248,951
11/03/98,19:25:01,19,221,-20,250,951
11/03/98,19:30:01,19,265,-20,254,951
11/03/98,19:35:01,25,244,-20,256,951
11/03/98,19:40:01,38,246,-20,260,951
11/03/98,19:45:01,47,247,-20,262,951
11/03/98,19:50:01,43,246,-20,266,951
11/03/98,19:55:01,38,257,-20,270,951
11/03/98,20:00:01,38,246,-20,272,951
11/03/98,20:05:01,16,259,-20,276,951
11/03/98,20:10:01,26,259,-20,278,951
11/03/98,20:15:01,33,279,-21,282,951
11/03/98,20:20:01,37,305,-21,286,951
11/03/98,20:25:01,47,297,-21,290,953
11/03/98,20:30:01,65,298,-21,294,953
11/03/98,20:35:01,66,299,-21,296,953
11/03/98,20:40:01,61,288,-21,300,953
11/03/98,20:45:01,56,287,-21,304,953
11/03/98,20:50:01,57,285,-20,308,953
11/03/98,20:55:01,76,290,-20,312,953
11/03/98,21:00:01,53,303,-21,318,953
11/03/98,21:05:01,47,292,-21,320,953
11/03/98,21:10:01,59,294,-21,326,953
11/03/98,21:15:01,39,323,-21,331,953
11/03/98,21:20:01,42,296,-21,335,953
11/03/98,21:25:01,63,287,-20,341,953
11/03/98,21:30:01,46,278,-20,345,953
11/03/98,21:35:01,60,287,-20,351,953
11/03/98,21:40:01,55,301,-20,356,953
11/03/98,21:45:01,35,274,-20,360,953
11/03/98,21:50:01,55,293,-20,366,953
11/03/98,21:55:01,23,339,-20,369,953
11/03/98,22:00:01,44,296,-20,377,953
11/03/98,22:05:01,44,279,-20,381,953
11/03/98,22:10:01,57,300,-20,385,953
11/03/98,22:15:01,50,301,-20,391,953
11/03/98,22:20:01,75,300,-20,395,953
11/03/98,22:25:01,72,300,-20,401,953
11/03/98,22:30:01,49,299,-20,405,953
11/03/98,22:35:01,69,303,-20,409,953
11/03/98,22:40:01,54,289,-20,415,953
11/03/98,22:45:01,34,290,-20,419,953
11/03/98,22:50:01,53,305,-20,423,953
11/03/98,22:55:01,37,291,-20,429,953
11/03/98,23:00:01,57,287,-20,432,953
11/03/98,23:05:01,62,312,-20,436,953
11/03/98,23:10:01,65,296,-19,440,953
11/03/98,23:15:01,69,303,-20,444,953
11/03/98,23:20:01,88,289,-19,450,953
11/03/98,23:25:01,67,305,-19,453,953
11/03/98,23:30:01,30,318,-20,457,953
11/03/98,23:35:01,82,303,-20,461,953
11/03/98,23:40:01,64,303,-20,465,953
11/03/98,23:45:01,29,288,-20,468,953
11/03/98,23:50:01,52,280,-20,472,953
11/03/98,23:55:01,62,296,-20,474,953
11/04/98,00:00:01,27,308,-19,476,953
